Regional Weather Roundup
Issued by NWS

Home | Current Version | Previous Version | Graphics & Text | Print | Product List | Glossary On
Versions: 1 2 3 4 5 6 7 8 9 10 11 12 13 14 15 16 17 18 19 20 21 22 23 24 25 26 27 28 29 30 31 32 33 34 35 36 37 38 39 40 41 42 43 44 45 46 47 48 49 50
774
ASUS43 KIND 141809
RWRIN

WEATHER ROUNDUP FOR INDIANA
NATIONAL WEATHER SERVICE INDIANAPOLIS IN
100 PM EST SUN FEB 14 2016

NOTE: "FAIR" INDICATES FEW OR NO CLOUDS BELOW 12,000 FEET WITH NO
SIGNIFICANT WEATHER AND/OR OBSTRUCTIONS TO VISIBILITY.

* - STATION DOES NOT REPORT WEATHER SUCH AS PRECIPITATION OR FOG.

+ - STATION NOT QUALITY CONTROLLED BY THE NATIONAL WEATHER SERVICE.
    USE DATA WITH CAUTION...ESPECIALLY DEWPOINT AND RELATIVE
    HUMIDITY OBSERVATIONS.

INZ001>003-010>013-019-020-141900-
NORTHWEST INDIANA

CITY           SKY/WX    TMP DP  RH WIND       PRES   REMARKS
GARY /AIRPORT/ CLOUDY    19   1  45 SE16      30.26F WCI   5
KNOX *+        CLOUDY    18   5  57 SE16      30.27F WCI   3
LA PORTE +     CLOUDY    17   6  62 SE10G18   30.26F WCI   4
6HR MIN TEMP:   4; 6HR MAX TEMP:  17;

MICHIGAN CITY+ CLOUDY    16   3  57 SE7       30.27F WCI   6
MONTICELLO +   LGT SNOW  19   3  51 SE9       30.26F WCI   7
6HR MIN TEMP:  12; 6HR MAX TEMP:  19;

RENSSELAER +   LGT SNOW  19  10  68 SE16      30.25F VSB 3/4 WCI   5
VALPARAISO     CLOUDY    17   5  59 SE15G21   30.25F WCI   2
6HR MIN TEMP:  11; 6HR MAX TEMP:  17;


$$

LMZ046-743>745-141900-
SOUTHERN LAKE MICHIGAN

STATION/POSITION TIME  TEMP    WIND        PRES    WAVE
                       AIR SEA DIR/SP/G            HT
                 (UTC) (F)     (DEG/KT/KT) (MB)    (FT)
BURNS HARBOR     1700   16     160/ 10/ 15 1026.1F
MICHIGAN CITY    1700   14     120/ 12/ 14   N/A

$$

INZ004-005-014>016-021>024-141900-
NORTH CENTRAL INDIANA

CITY           SKY/WX    TMP DP  RH WIND       PRES   REMARKS
ELKHART        CLOUDY    16   3  57 MISG        N/A
GOSHEN         CLOUDY    16   4  59 SE15      30.29F WCI   1
6HR MIN TEMP:  -1; 6HR MAX TEMP:  16;

LOGANSPORT +   FLURRIES  19   3  49 SE14G21   30.27F WCI   6
PERU/GRISSOM   CLOUDY    18   6  61 SE16      30.24F WCI   3
6HR MIN TEMP:  10; 6HR MAX TEMP:  18;

ROCHESTER +    CLOUDY    19   1  45 SE12      30.28F WCI   7
SOUTH BEND     CLOUDY    14   4  64 SE15      30.29F WCI  -1
6HR MIN TEMP:   2; 6HR MAX TEMP:  14; 6HR PCP: TRACE;

WARSAW +       CLOUDY    18   5  57 SE8       30.29F WCI   7

$$

INZ006>009-017-018-025>027-141900-
NORTHEAST INDIANA

CITY           SKY/WX    TMP DP  RH WIND       PRES   REMARKS
ANGOLA *+      SUNNY     14   5  67 SE14      30.29F WCI  -1
AUBURN +       CLOUDY    19   5  53 SE6       30.32F WCI  11
FORT WAYNE     CLOUDY    17   3  54 SE15G21   30.32F WCI   2
6HR MIN TEMP:   4; 6HR MAX TEMP:  18;

HUNTINGTON +   CLOUDY    17   2  53 SE10      30.30F WCI   4
6HR MIN TEMP:   2; 6HR MAX TEMP:  17;


$$

INZ028-029-035-036-043>045-051>053-141900-
WEST CENTRAL INDIANA

CITY           SKY/WX    TMP DP  RH WIND       PRES   REMARKS
CRAWFORDSVL +  LGT SNOW  17  10  75 SE12      30.23F VSB 1   WCI   4
6HR MIN TEMP:  13; 6HR MAX TEMP:  17;

GREENCASTLE +  LGT SNOW  19  10  68 SE9       30.22F WCI   9
LAFAYETTE      SNOW      17  12  80 SE13      30.27R VSB 1/2 WCI   4
6HR MIN TEMP:  13; 6HR MAX TEMP:  18; 6HR PCP: TRACE;

TERRE HAUTE    LGT SNOW  20  14  77 SE13      30.23F WCI   7
6HR MIN TEMP:  15; 6HR MAX TEMP:  20; 6HR PCP: TRACE;


$$

INZ030>032-037>040-046>048-054>057-064-065-141900-
CENTRAL INDIANA

CITY           SKY/WX    TMP DP  RH WIND       PRES   REMARKS
COLUMBUS       CLOUDY    19  12  73 SE13      30.25  WCI   7
FISHERS *+     CLOUDY    18  12  79 SE10G16   30.25  WCI   6
FRANKFORT +    LGT SNOW  19   5  54 SE15      30.26F WCI   4
6HR MIN TEMP:  14; 6HR MAX TEMP:  19;

GREENWOOD *+   CLOUDY    19  12  73 SE13G20   30.25F WCI   7
INDIANAPOLIS   LGT SNOW  19  10  68 SE10      30.24F WCI   7
6HR MIN TEMP:  13; 6HR MAX TEMP:  19; 6HR PCP: TRACE;

-EAGLE CREEK   LGT SNOW  18  10  71 SE13      30.25R WCI   5
6HR MIN TEMP:  13; 6HR MAX TEMP:  18; 6HR PCP: TRACE;

KOKOMO *+      CLOUDY    18   7  62 SE15      30.25F WCI   3
6HR MIN TEMP:  10; 6HR MAX TEMP:  18;

MARION +       CLOUDY    17  -1  44 SE13      30.28F WCI   4
MT COMFORT *+  CLOUDY    18   9  68 SE14G21   30.24F WCI   4
SHELBYVILLE    CLOUDY    21  10  62 E14       30.24F WCI   8
6HR MIN TEMP:  14; 6HR MAX TEMP:  21; 6HR PCP: TRACE;

ZIONSVILLE +   CLOUDY    18   9  69 SE14      30.25F WCI   4
6HR MIN TEMP:  12; 6HR MAX TEMP:  18;


$$

INZ033-034-041-042-049-050-058-059-141900-
EAST CENTRAL INDIANA

CITY           SKY/WX    TMP DP  RH WIND       PRES   REMARKS
MUNCIE         CLOUDY    19   3  49 SE10      30.28F WCI   7
6HR MIN TEMP:  10; 6HR MAX TEMP:  19;


$$

INZ060-061-067>069-081>083-085>088-141900-
SOUTHWEST INDIANA

CITY           SKY/WX    TMP DP  RH WIND       PRES   REMARKS
EVANSVILLE     SNOW      24  18  77 SE12G20   30.20F VSB 1/2 WCI  13
6HR MIN TEMP:  24; 6HR MAX TEMP:  25; 6HR PCP:  0.02;

HUNTINGBURG *+ CLOUDY    21  16  79 SE14      30.21F WCI   8
6HR MIN TEMP:  19; 6HR MAX TEMP:  21;

WASHINGTON +   LGT SNOW  21  15  78 SE12      30.22F WCI   9
6HR MIN TEMP:  18; 6HR MAX TEMP:  22;


$$

INZ062-063-066-070>080-084-089>092-141900-
SOUTH CENTRAL AND SOUTHEAST INDIANA

CITY           SKY/WX    TMP DP  RH WIND       PRES   REMARKS
BEDFORD +      LGT SNOW  19  16  86 SE12      30.23F WCI   7
BLOOMINGTON    LGT SNOW  19  13  77 SE12      30.20F VSB 1   WCI   7
6HR MIN TEMP:  16; 6HR MAX TEMP:  20; 6HR PCP: TRACE;

MADISON *+     CLOUDY    21  12  68 E9        30.27F WCI  11
NORTH VERNON + CLOUDY    21  10  63 SE10G17   30.26F WCI  10
SEYMOUR +      LGT SNOW  23  14  68 SE15      30.27F WCI  10

$$





USA.gov is the U.S. government's official web portal to all federal, state and local government web resources and services.